RZO360 LPPD-LPMA

Flight info

Callsign RZO360
Flight time 1h 36m
Altitude 37000
Route GIRIX DCT ETROX DCT 35N020W DCT IRKID DCT IBBAN
Aircraft A21N/M-SDE2E3FGHIRWXY/LB1

Departure

Time 2026-05-03 20:38
Airport João Paulo II Airport (LPPD)

Arrival

Time 2026-05-03 22:14
Airport Cristiano Ronaldo International Airport (LPMA)
Time Latitude Longitude Altitude Speed Heading
2026-05-03 20:15 37.74321 -25.69637 230 ft 0 kts 292°
2026-05-03 20:32 37.74323 -25.69641 230 ft 1 kts 288°
2026-05-03 20:32 37.74324 -25.69668 231 ft 3 kts 264°
2026-05-03 20:33 37.74314 -25.69698 231 ft 3 kts 230°
2026-05-03 20:33 37.74298 -25.69712 230 ft 5 kts 206°
2026-05-03 20:33 37.74245 -25.69744 227 ft 11 kts 214°
2026-05-03 20:33 37.74221 -25.69832 229 ft 10 kts 283°
2026-05-03 20:34 37.74242 -25.69909 232 ft 8 kts 290°
2026-05-03 20:34 37.74260 -25.69966 234 ft 5 kts 291°
2026-05-03 20:34 37.74290 -25.70062 239 ft 13 kts 290°
2026-05-03 20:34 37.74321 -25.70160 243 ft 10 kts 292°
2026-05-03 20:35 37.74347 -25.70245 246 ft 14 kts 291°
2026-05-03 20:35 37.74392 -25.70387 252 ft 16 kts 292°
2026-05-03 20:35 37.74432 -25.70512 255 ft 14 kts 292°
2026-05-03 20:35 37.74466 -25.70619 257 ft 12 kts 290°
2026-05-03 20:36 37.74495 -25.70712 259 ft 10 kts 291°
2026-05-03 20:36 37.74527 -25.70814 262 ft 19 kts 290°
2026-05-03 20:36 37.74566 -25.70943 264 ft 7 kts 290°
2026-05-03 20:36 37.74583 -25.71005 265 ft 7 kts 281°
2026-05-03 20:37 37.74604 -25.71018 265 ft 4 kts 81°
2026-05-03 20:37 37.74582 -25.70965 265 ft 8 kts 122°
2026-05-03 20:37 37.74555 -25.70902 264 ft 9 kts 113°
2026-05-03 20:37 37.74484 -25.70675 258 ft 67 kts 112°
2026-05-03 20:38 37.74206 -25.69786 227 ft 147 kts 111°
2026-05-03 20:38 37.73754 -25.68367 464 ft 185 kts 110°
2026-05-03 20:38 37.73137 -25.66997 1292 ft 182 kts 134°
2026-05-03 20:38 37.72124 -25.66042 2166 ft 181 kts 149°
2026-05-03 20:39 37.71051 -25.65215 2802 ft 190 kts 148°
2026-05-03 20:39 37.69965 -25.64336 3300 ft 205 kts 148°
2026-05-03 20:39 37.68708 -25.63310 3856 ft 221 kts 146°
2026-05-03 20:39 37.67392 -25.62174 4398 ft 238 kts 144°
2026-05-03 20:40 37.66112 -25.60753 4882 ft 259 kts 134°
2026-05-03 20:40 37.64822 -25.59043 5451 ft 278 kts 132°
2026-05-03 20:40 37.63472 -25.57237 6263 ft 286 kts 133°
2026-05-03 20:40 37.62116 -25.55438 7213 ft 288 kts 133°
2026-05-03 20:41 37.60735 -25.53619 8129 ft 291 kts 133°
2026-05-03 20:41 37.59311 -25.51755 8995 ft 296 kts 133°
2026-05-03 20:41 37.57886 -25.49917 9863 ft 300 kts 133°
2026-05-03 20:41 37.56439 -25.48037 10749 ft 302 kts 133°
2026-05-03 20:42 37.54942 -25.46109 11333 ft 317 kts 134°
2026-05-03 20:42 37.53352 -25.44076 11785 ft 334 kts 134°
2026-05-03 20:42 37.51675 -25.41936 12230 ft 352 kts 134°
2026-05-03 20:42 37.49934 -25.39712 12920 ft 359 kts 134°
2026-05-03 20:43 37.48176 -25.37469 13737 ft 363 kts 134°
2026-05-03 20:43 37.46399 -25.35202 14531 ft 366 kts 134°
2026-05-03 20:43 37.44604 -25.32911 15267 ft 370 kts 134°
2026-05-03 20:43 37.42795 -25.30603 15984 ft 374 kts 134°
2026-05-03 20:44 37.40958 -25.28260 16708 ft 378 kts 134°
2026-05-03 20:44 37.39096 -25.25889 17420 ft 382 kts 134°
2026-05-03 20:44 37.37238 -25.23524 18105 ft 386 kts 134°
2026-05-03 20:44 37.35330 -25.21098 18781 ft 389 kts 134°
2026-05-03 20:45 37.33458 -25.18719 19410 ft 393 kts 134°
2026-05-03 20:45 37.31685 -25.16468 19992 ft 397 kts 134°
2026-05-03 20:45 37.29842 -25.14129 20584 ft 400 kts 134°
2026-05-03 20:45 37.27892 -25.11657 21187 ft 403 kts 134°
2026-05-03 20:46 37.25891 -25.09123 21770 ft 407 kts 134°
2026-05-03 20:46 37.23892 -25.06592 22339 ft 411 kts 134°
2026-05-03 20:46 37.21902 -25.04073 22894 ft 414 kts 134°
2026-05-03 20:46 37.19855 -25.01485 23447 ft 418 kts 134°
2026-05-03 20:47 37.17793 -24.98881 23982 ft 421 kts 134°
2026-05-03 20:47 37.15752 -24.96305 24489 ft 424 kts 134°
2026-05-03 20:47 37.13652 -24.93658 24975 ft 427 kts 134°
2026-05-03 20:47 37.11546 -24.91004 25210 ft 429 kts 134°
2026-05-03 20:48 37.09440 -24.88354 25215 ft 429 kts 134°
2026-05-03 20:48 37.07361 -24.85739 25217 ft 429 kts 134°
2026-05-03 20:48 37.05241 -24.83075 25218 ft 428 kts 134°
2026-05-03 20:48 37.03134 -24.80430 25219 ft 428 kts 134°
2026-05-03 20:49 37.01031 -24.77792 25219 ft 428 kts 134°
2026-05-03 20:49 36.99168 -24.75457 25219 ft 428 kts 134°
2026-05-03 20:49 36.97083 -24.72845 25219 ft 428 kts 134°
2026-05-03 20:49 36.94968 -24.70197 25219 ft 428 kts 134°
2026-05-03 20:50 36.92873 -24.67578 25219 ft 428 kts 134°
2026-05-03 20:50 36.90772 -24.64953 25219 ft 428 kts 134°
2026-05-03 20:50 36.88636 -24.62286 25229 ft 430 kts 134°
2026-05-03 20:50 36.86514 -24.59639 25492 ft 435 kts 134°
2026-05-03 20:51 36.84383 -24.56983 26043 ft 435 kts 134°
2026-05-03 20:51 36.82245 -24.54321 26539 ft 437 kts 134°
2026-05-03 20:51 36.80083 -24.51630 26966 ft 440 kts 134°
2026-05-03 20:51 36.77910 -24.48929 27370 ft 443 kts 134°
2026-05-03 20:52 36.75738 -24.46231 27764 ft 445 kts 134°
2026-05-03 20:52 36.73544 -24.43507 28148 ft 448 kts 134°
2026-05-03 20:52 36.71324 -24.40755 28524 ft 451 kts 134°
2026-05-03 20:52 36.69074 -24.37967 28895 ft 453 kts 134°
2026-05-03 20:53 36.66864 -24.35232 29246 ft 455 kts 134°
2026-05-03 20:53 36.64610 -24.32444 29587 ft 458 kts 135°
2026-05-03 20:53 36.62357 -24.29659 29911 ft 459 kts 135°
2026-05-03 20:53 36.60062 -24.26826 30231 ft 462 kts 135°
2026-05-03 20:54 36.57792 -24.24024 30648 ft 461 kts 135°
2026-05-03 20:54 36.53269 -24.18449 31549 ft 458 kts 135°
2026-05-03 20:54 36.51020 -24.15681 31954 ft 457 kts 135°
2026-05-03 20:55 36.48741 -24.12880 32346 ft 456 kts 135°
2026-05-03 20:55 36.46504 -24.10123 32719 ft 456 kts 134°
2026-05-03 20:55 36.44355 -24.07229 33083 ft 455 kts 130°
2026-05-03 20:55 36.42393 -24.04201 33435 ft 454 kts 126°
2026-05-03 20:56 36.40579 -24.00967 33780 ft 453 kts 122°
2026-05-03 20:56 36.38972 -23.97633 34113 ft 452 kts 118°
2026-05-03 20:56 36.37558 -23.94180 34433 ft 451 kts 114°
2026-05-03 20:56 36.36316 -23.90593 34750 ft 450 kts 111°
2026-05-03 20:57 36.35139 -23.86983 35057 ft 450 kts 111°
2026-05-03 20:57 36.33984 -23.83424 35347 ft 449 kts 111°
2026-05-03 20:57 36.32826 -23.79862 35612 ft 449 kts 111°
2026-05-03 20:57 36.31659 -23.76287 35837 ft 450 kts 111°
2026-05-03 20:58 36.30476 -23.72676 36040 ft 451 kts 111°
2026-05-03 20:58 36.29298 -23.69092 36249 ft 452 kts 111°
2026-05-03 20:58 36.28104 -23.65467 36431 ft 453 kts 111°
2026-05-03 20:58 36.26925 -23.61895 36608 ft 454 kts 111°
2026-05-03 20:59 36.25718 -23.58242 36780 ft 455 kts 111°
2026-05-03 20:59 36.24618 -23.54917 36930 ft 456 kts 111°
2026-05-03 20:59 36.23415 -23.51287 37094 ft 457 kts 111°
2026-05-03 20:59 36.22214 -23.47667 37216 ft 458 kts 111°
2026-05-03 21:00 36.20601 -23.42810 37220 ft 459 kts 111°
2026-05-03 21:00 36.17374 -23.33120 37224 ft 459 kts 111°
2026-05-03 21:01 36.14942 -23.25837 37225 ft 459 kts 111°
2026-05-03 21:01 36.12499 -23.18537 37225 ft 459 kts 112°
2026-05-03 21:02 36.10059 -23.11278 37225 ft 459 kts 112°
2026-05-03 21:02 36.07614 -23.04013 37225 ft 459 kts 112°
2026-05-03 21:03 36.05168 -22.96763 37225 ft 459 kts 112°
2026-05-03 21:03 36.02708 -22.89486 37225 ft 459 kts 112°
2026-05-03 21:04 36.00249 -22.82228 37225 ft 459 kts 112°
2026-05-03 21:04 35.97797 -22.75008 37225 ft 459 kts 112°
2026-05-03 21:05 35.95320 -22.67736 37225 ft 459 kts 112°
2026-05-03 21:05 35.92865 -22.60540 37225 ft 459 kts 112°
2026-05-03 21:06 35.90378 -22.53272 37225 ft 459 kts 111°
2026-05-03 21:06 35.87902 -22.46044 37225 ft 459 kts 111°
2026-05-03 21:07 35.85426 -22.38836 37225 ft 459 kts 111°
2026-05-03 21:07 35.82925 -22.31575 37225 ft 459 kts 112°
2026-05-03 21:08 35.80440 -22.24379 37225 ft 459 kts 112°
2026-05-03 21:08 35.77946 -22.17172 37225 ft 459 kts 112°
2026-05-03 21:09 35.75563 -22.10302 37225 ft 459 kts 112°
2026-05-03 21:09 35.73053 -22.03091 37225 ft 459 kts 112°
2026-05-03 21:10 35.70542 -21.95892 37225 ft 459 kts 112°
2026-05-03 21:10 35.68028 -21.88699 37225 ft 459 kts 112°
2026-05-03 21:11 35.65493 -21.81464 37225 ft 459 kts 112°
2026-05-03 21:11 35.62976 -21.74298 37225 ft 459 kts 112°
2026-05-03 21:12 35.60447 -21.67110 37225 ft 459 kts 112°
2026-05-03 21:12 35.57922 -21.59948 37225 ft 459 kts 112°
2026-05-03 21:13 35.55389 -21.52783 37225 ft 459 kts 112°
2026-05-03 21:13 35.52843 -21.45598 37225 ft 459 kts 112°
2026-05-03 21:14 35.50309 -21.38463 37225 ft 459 kts 112°
2026-05-03 21:14 35.47747 -21.31262 37225 ft 459 kts 113°
2026-05-03 21:15 35.45209 -21.24147 37225 ft 459 kts 113°
2026-05-03 21:15 35.42638 -21.16957 37225 ft 459 kts 113°
2026-05-03 21:16 35.40076 -21.09806 37224 ft 459 kts 113°
2026-05-03 21:16 35.37508 -21.02661 37225 ft 459 kts 113°
2026-05-03 21:17 35.35361 -20.96697 37225 ft 459 kts 113°
2026-05-03 21:17 35.32368 -20.88403 37225 ft 459 kts 113°
2026-05-03 21:18 35.29789 -20.81269 37225 ft 459 kts 113°
2026-05-03 21:18 35.27200 -20.74124 37225 ft 459 kts 113°
2026-05-03 21:19 35.24612 -20.66995 37225 ft 459 kts 113°
2026-05-03 21:19 35.22031 -20.59907 37225 ft 459 kts 113°
2026-05-03 21:20 35.19432 -20.52790 37224 ft 459 kts 113°
2026-05-03 21:20 35.16839 -20.45698 37224 ft 459 kts 113°
2026-05-03 21:21 35.14228 -20.38574 37224 ft 459 kts 113°
2026-05-03 21:21 35.11618 -20.31467 37224 ft 459 kts 114°
2026-05-03 21:22 35.09018 -20.24401 37224 ft 459 kts 114°
2026-05-03 21:22 35.06400 -20.17302 37224 ft 459 kts 114°
2026-05-03 21:23 35.03787 -20.10230 37224 ft 459 kts 114°
2026-05-03 21:23 35.01148 -20.03174 37224 ft 459 kts 115°
2026-05-03 21:24 34.98040 -19.96398 37224 ft 460 kts 122°
2026-05-03 21:24 34.94522 -19.89912 37225 ft 460 kts 123°
2026-05-03 21:25 34.90982 -19.83433 37224 ft 460 kts 123°
2026-05-03 21:25 34.87435 -19.76934 37224 ft 460 kts 123°
2026-05-03 21:26 34.83913 -19.70485 37224 ft 460 kts 123°
2026-05-03 21:26 34.80370 -19.64008 37224 ft 460 kts 123°
2026-05-03 21:27 34.76847 -19.57577 37224 ft 460 kts 123°
2026-05-03 21:27 34.73304 -19.51120 37224 ft 460 kts 123°
2026-05-03 21:28 34.69748 -19.44653 37224 ft 460 kts 123°
2026-05-03 21:28 34.66205 -19.38221 37224 ft 460 kts 123°
2026-05-03 21:29 34.62646 -19.31770 37224 ft 460 kts 123°
2026-05-03 21:29 34.59092 -19.25341 37224 ft 460 kts 123°
2026-05-03 21:30 34.55529 -19.18907 37224 ft 460 kts 123°
2026-05-03 21:30 34.51962 -19.12477 37224 ft 460 kts 123°
2026-05-03 21:31 34.48391 -19.06051 37224 ft 460 kts 123°
2026-05-03 21:31 34.44844 -18.99681 37224 ft 460 kts 123°
2026-05-03 21:32 34.41254 -18.93245 37224 ft 460 kts 123°
2026-05-03 21:32 34.37671 -18.86832 37224 ft 460 kts 123°
2026-05-03 21:33 34.34101 -18.80456 37224 ft 460 kts 123°
2026-05-03 21:33 34.30515 -18.74060 37224 ft 460 kts 123°
2026-05-03 21:34 34.26920 -18.67661 37224 ft 460 kts 123°
2026-05-03 21:34 34.23342 -18.61303 37224 ft 460 kts 123°
2026-05-03 21:35 34.19748 -18.54927 37224 ft 460 kts 123°
2026-05-03 21:35 34.16144 -18.48545 37224 ft 460 kts 123°
2026-05-03 21:36 34.12557 -18.42202 37224 ft 460 kts 123°
2026-05-03 21:36 34.08943 -18.35825 37224 ft 460 kts 123°
2026-05-03 21:37 34.05322 -18.29444 37224 ft 460 kts 124°
2026-05-03 21:37 34.01717 -18.23103 37224 ft 460 kts 124°
2026-05-03 21:38 33.98096 -18.16742 37224 ft 460 kts 124°
2026-05-03 21:38 33.94514 -18.10462 36836 ft 453 kts 124°
2026-05-03 21:39 33.92713 -18.07322 36267 ft 452 kts 125°
2026-05-03 21:39 33.90929 -18.04401 35710 ft 450 kts 126°
2026-05-03 21:39 33.89070 -18.01410 35126 ft 449 kts 126°
2026-05-03 21:39 33.87195 -17.98398 34333 ft 446 kts 126°
2026-05-03 21:40 33.85323 -17.95392 33069 ft 449 kts 126°
2026-05-03 21:40 33.83466 -17.92412 31614 ft 455 kts 126°
2026-05-03 21:40 33.81556 -17.89343 30103 ft 459 kts 126°
2026-05-03 21:40 33.79674 -17.86314 28782 ft 457 kts 127°
2026-05-03 21:41 33.77770 -17.83266 28101 ft 450 kts 126°
2026-05-03 21:41 33.75913 -17.80302 27583 ft 443 kts 126°
2026-05-03 21:41 33.74337 -17.77773 27101 ft 439 kts 126°
2026-05-03 21:41 33.72506 -17.74835 26516 ft 435 kts 126°
2026-05-03 21:42 33.70696 -17.71938 25939 ft 432 kts 126°
2026-05-03 21:42 33.68917 -17.69093 25432 ft 427 kts 126°
2026-05-03 21:42 33.67134 -17.66246 25222 ft 426 kts 126°
2026-05-03 21:42 33.65356 -17.63409 25219 ft 428 kts 126°
2026-05-03 21:43 33.63567 -17.60557 25219 ft 428 kts 126°
2026-05-03 21:43 33.61775 -17.57704 25218 ft 428 kts 126°
2026-05-03 21:43 33.59994 -17.54869 25218 ft 428 kts 126°
2026-05-03 21:43 33.58191 -17.52003 25218 ft 428 kts 126°
2026-05-03 21:44 33.56405 -17.49165 25218 ft 428 kts 126°
2026-05-03 21:44 33.54600 -17.46300 25218 ft 428 kts 126°
2026-05-03 21:44 33.52802 -17.43447 25209 ft 427 kts 126°
2026-05-03 21:44 33.51036 -17.40648 24965 ft 422 kts 126°
2026-05-03 21:45 33.49266 -17.37846 24391 ft 420 kts 126°
2026-05-03 21:45 33.47568 -17.35158 23813 ft 418 kts 126°
2026-05-03 21:45 33.45801 -17.32362 23265 ft 415 kts 127°
2026-05-03 21:45 33.44086 -17.29651 22748 ft 412 kts 127°
2026-05-03 21:46 33.42365 -17.26933 22223 ft 409 kts 127°
2026-05-03 21:46 33.40651 -17.24226 21694 ft 405 kts 127°
2026-05-03 21:46 33.38961 -17.21560 21149 ft 399 kts 127°
2026-05-03 21:46 33.37300 -17.18944 20230 ft 393 kts 127°
2026-05-03 21:47 33.35650 -17.16346 19171 ft 390 kts 127°
2026-05-03 21:47 33.34033 -17.13800 18169 ft 384 kts 127°
2026-05-03 21:47 33.32426 -17.11277 17167 ft 379 kts 127°
2026-05-03 21:47 33.30833 -17.08776 16157 ft 374 kts 127°
2026-05-03 21:48 33.29286 -17.06349 15148 ft 368 kts 127°
2026-05-03 21:48 33.27752 -17.03949 14153 ft 363 kts 127°
2026-05-03 21:48 33.26237 -17.01575 13157 ft 358 kts 127°
2026-05-03 21:48 33.24734 -16.99216 12423 ft 358 kts 127°
2026-05-03 21:49 33.23235 -16.96872 11947 ft 352 kts 127°
2026-05-03 21:49 33.21813 -16.94648 11472 ft 349 kts 127°
2026-05-03 21:49 33.20343 -16.92349 11142 ft 347 kts 127°
2026-05-03 21:49 33.18889 -16.90086 10843 ft 339 kts 127°
2026-05-03 21:50 33.17487 -16.87900 10634 ft 326 kts 127°
2026-05-03 21:50 33.16145 -16.85809 10393 ft 311 kts 127°
2026-05-03 21:50 33.14860 -16.83805 9958 ft 298 kts 127°
2026-05-03 21:50 33.13599 -16.81838 9425 ft 297 kts 127°
2026-05-03 21:51 33.12360 -16.79904 9020 ft 295 kts 127°
2026-05-03 21:51 33.11114 -16.77966 8624 ft 293 kts 127°
2026-05-03 21:51 33.09891 -16.76066 8219 ft 291 kts 127°
2026-05-03 21:51 33.08661 -16.74157 7822 ft 290 kts 127°
2026-05-03 21:52 33.07436 -16.72253 7425 ft 288 kts 127°
2026-05-03 21:52 33.06232 -16.70386 7219 ft 284 kts 127°
2026-05-03 21:52 33.05013 -16.68487 7216 ft 287 kts 127°
2026-05-03 21:52 33.03802 -16.66602 7214 ft 288 kts 127°
2026-05-03 21:53 33.02581 -16.64707 7214 ft 287 kts 127°
2026-05-03 21:53 33.01358 -16.62812 7213 ft 288 kts 127°
2026-05-03 21:53 33.00100 -16.60957 7210 ft 288 kts 135°
2026-05-03 21:53 32.98387 -16.59790 7199 ft 286 kts 169°
2026-05-03 21:54 32.96424 -16.59608 7218 ft 285 kts 180°
2026-05-03 21:54 32.94414 -16.59579 7216 ft 285 kts 180°
2026-05-03 21:54 32.92444 -16.59520 7214 ft 285 kts 179°
2026-05-03 21:54 32.90462 -16.59427 7213 ft 284 kts 179°
2026-05-03 21:55 32.88524 -16.59315 7203 ft 268 kts 179°
2026-05-03 21:55 32.86723 -16.59205 7199 ft 250 kts 179°
2026-05-03 21:55 32.85051 -16.59440 7192 ft 238 kts 206°
2026-05-03 21:55 32.83651 -16.60465 7213 ft 236 kts 220°
2026-05-03 21:56 32.82600 -16.61899 7194 ft 229 kts 253°
2026-05-03 21:56 32.82478 -16.63711 7102 ft 218 kts 285°
2026-05-03 21:56 32.83130 -16.65285 6709 ft 217 kts 313°
2026-05-03 21:56 32.84370 -16.66298 6314 ft 219 kts 341°
2026-05-03 21:57 32.85891 -16.66477 5958 ft 221 kts
2026-05-03 21:57 32.87282 -16.65734 5651 ft 222 kts 37°
2026-05-03 21:57 32.88406 -16.64516 5492 ft 214 kts 40°
2026-05-03 21:57 32.89468 -16.63337 5269 ft 209 kts 39°
2026-05-03 21:58 32.90546 -16.62153 4957 ft 209 kts 39°
2026-05-03 21:58 32.91607 -16.60993 4656 ft 208 kts 39°
2026-05-03 21:58 32.92662 -16.59836 4355 ft 207 kts 42°
2026-05-03 21:58 32.93379 -16.58365 4112 ft 210 kts 77°
2026-05-03 21:59 32.93319 -16.56607 4117 ft 218 kts 107°
2026-05-03 21:59 32.92555 -16.55111 4112 ft 220 kts 137°
2026-05-03 21:59 32.91236 -16.54218 4107 ft 219 kts 169°
2026-05-03 21:59 32.89745 -16.54226 4105 ft 214 kts 201°
2026-05-03 22:00 32.88472 -16.55080 4115 ft 209 kts 225°
2026-05-03 22:00 32.87400 -16.56275 4115 ft 209 kts 227°
2026-05-03 22:00 32.86351 -16.57475 4112 ft 209 kts 227°
2026-05-03 22:00 32.85295 -16.58663 4107 ft 209 kts 226°
2026-05-03 22:01 32.84230 -16.59837 4108 ft 208 kts 225°
2026-05-03 22:01 32.83211 -16.61046 3921 ft 204 kts 238°
2026-05-03 22:01 32.82758 -16.62572 3560 ft 199 kts 271°
2026-05-03 22:01 32.83005 -16.64152 3263 ft 194 kts 296°
2026-05-03 22:02 32.83801 -16.65411 3111 ft 191 kts 321°
2026-05-03 22:02 32.84992 -16.66133 3111 ft 194 kts 346°
2026-05-03 22:02 32.86353 -16.66146 3108 ft 198 kts 12°
2026-05-03 22:02 32.87592 -16.65402 3109 ft 202 kts 37°
2026-05-03 22:03 32.88646 -16.64277 3113 ft 203 kts 40°
2026-05-03 22:03 32.89681 -16.63126 3109 ft 203 kts 40°
2026-05-03 22:03 32.90720 -16.61975 3106 ft 203 kts 40°
2026-05-03 22:03 32.91763 -16.60829 3106 ft 203 kts 39°
2026-05-03 22:04 32.92784 -16.59662 3102 ft 204 kts 48°
2026-05-03 22:04 32.93372 -16.58115 3098 ft 211 kts 80°
2026-05-03 22:04 32.93221 -16.56375 3104 ft 215 kts 111°
2026-05-03 22:04 32.92355 -16.54927 3106 ft 217 kts 142°
2026-05-03 22:05 32.90998 -16.54239 3098 ft 214 kts 180°
2026-05-03 22:05 32.89603 -16.54677 3107 ft 208 kts 219°
2026-05-03 22:05 32.88496 -16.55792 3124 ft 206 kts 225°
2026-05-03 22:05 32.87421 -16.56919 3112 ft 206 kts 224°
2026-05-03 22:06 32.86330 -16.58035 3108 ft 206 kts 224°
2026-05-03 22:06 32.85233 -16.59139 3106 ft 206 kts 224°
2026-05-03 22:06 32.84063 -16.60116 3086 ft 210 kts 203°
2026-05-03 22:06 32.82628 -16.60522 3111 ft 212 kts 196°
2026-05-03 22:07 32.81338 -16.61291 3093 ft 205 kts 227°
2026-05-03 22:07 32.80370 -16.62535 3114 ft 205 kts 231°
2026-05-03 22:07 32.79375 -16.63757 3107 ft 206 kts 226°
2026-05-03 22:07 32.78291 -16.64873 3106 ft 207 kts 222°
2026-05-03 22:08 32.77150 -16.65918 3042 ft 208 kts 220°
2026-05-03 22:08 32.75976 -16.66929 2801 ft 207 kts 218°
2026-05-03 22:08 32.74797 -16.67917 2539 ft 206 kts 218°
2026-05-03 22:08 32.73624 -16.68888 2271 ft 205 kts 218°
2026-05-03 22:09 32.72456 -16.69852 2003 ft 204 kts 218°
2026-05-03 22:09 32.71364 -16.70756 1751 ft 203 kts 218°
2026-05-03 22:09 32.70203 -16.71713 1479 ft 202 kts 218°
2026-05-03 22:10 32.67851 -16.73527 1146 ft 203 kts 207°
2026-05-03 22:10 32.66581 -16.74287 1141 ft 203 kts 212°
2026-05-03 22:10 32.65350 -16.75120 1136 ft 202 kts 213°
2026-05-03 22:10 32.64273 -16.76139 1123 ft 197 kts 236°
2026-05-03 22:11 32.63575 -16.77454 1227 ft 176 kts 245°
2026-05-03 22:11 32.63063 -16.78660 1160 ft 152 kts 249°
2026-05-03 22:11 32.62866 -16.79760 1068 ft 130 kts 288°
2026-05-03 22:11 32.63417 -16.80598 1134 ft 132 kts 320°
2026-05-03 22:12 32.64010 -16.81415 1144 ft 133 kts 302°
2026-05-03 22:12 32.64600 -16.82247 1262 ft 133 kts 330°
2026-05-03 22:12 32.65482 -16.82166 1187 ft 141 kts 41°
2026-05-03 22:12 32.65881 -16.81133 1092 ft 135 kts 56°
2026-05-03 22:13 32.66545 -16.80397 913 ft 130 kts 24°
2026-05-03 22:13 32.67361 -16.79914 802 ft 130 kts 19°
2026-05-03 22:13 32.68130 -16.79319 519 ft 135 kts 41°
2026-05-03 22:13 32.68799 -16.78575 277 ft 132 kts 37°
2026-05-03 22:14 32.69450 -16.77827 208 ft 125 kts 41°
2026-05-03 22:14 32.70000 -16.77201 210 ft 83 kts 48°
2026-05-03 22:14 32.70345 -16.76803 198 ft 55 kts 46°
2026-05-03 22:14 32.70532 -16.76568 203 ft 28 kts 40°
2026-05-03 22:15 32.70659 -16.76479 201 ft 15 kts 36°
2026-05-03 22:15 32.70621 -16.76454 200 ft 17 kts 232°
2026-05-03 22:15 32.70510 -16.76593 203 ft 22 kts 226°
2026-05-03 22:15 32.70399 -16.76728 200 ft 23 kts 226°
2026-05-03 22:16 32.70284 -16.76865 198 ft 23 kts 225°
2026-05-03 22:16 32.70171 -16.76997 201 ft 21 kts 224°
2026-05-03 22:16 32.70073 -16.77109 206 ft 17 kts 224°
2026-05-03 22:16 32.69980 -16.77173 209 ft 15 kts 184°
2026-05-03 22:17 32.69854 -16.77181 200 ft 20 kts 197°
2026-05-03 22:17 32.69772 -16.77257 196 ft 14 kts 225°
2026-05-03 22:17 32.69709 -16.77338 195 ft 11 kts 227°
2026-05-03 22:17 32.69654 -16.77404 194 ft 10 kts 224°
2026-05-03 22:18 32.69607 -16.77459 194 ft 8 kts 225°
2026-05-03 22:18 32.69566 -16.77513 193 ft 7 kts 226°
2026-05-03 22:18 32.69538 -16.77546 193 ft 0 kts 226°
2026-05-03 22:18 32.69534 -16.77550 193 ft 1 kts 222°
2026-05-03 22:19 32.69523 -16.77557 193 ft 2 kts 194°
2026-05-03 22:19 32.69503 -16.77550 191 ft 4 kts 148°
2026-05-03 22:19 32.69488 -16.77538 188 ft 1 kts 145°
2026-05-03 22:19 32.69476 -16.77527 186 ft 0 kts 140°
2026-05-03 22:20 32.69466 -16.77517 184 ft 1 kts 138°